Helicity
7 -15 18 27 39 65 87 92 96 96 94 93 78 63 51 45 47 47 34 30 35 45 52 46 43 36 30 22 31 30 30 26 29 42 63 63 59 39 34 39 25 43 29
17 -14 6 30 48 91 89 87 103 99 100 82 57 43 37 41 29 20 18 15 20 28 32 32 29 32 30 34 40 40 39 33 32 18 28 27 56 61 32 45 44 42 25
26 1 -4 35 65 82 78 100 109 94 80 50 39 37 43 35 18 9 7 3 9 17 22 23 26 23 25 30 34 37 34 31 29 21 10 7 17 42 53 46 50 33 24
43 10 11 25 59 69 88 91 80 67 45 36 41 39 25 9 4 0 -7 -7 4 8 14 18 18 16 16 15 16 20 20 24 23 20 15 13 35 33 33 48 63 47 40
36 14 25 33 51 75 75 60 53 44 35 45 37 17 4 3 -1 -8 -13 -9 0 3 4 5 5 6 5 3 3 4 7 6 14 20 32 19 25 51 52 45 48 45 49
14 10 29 30 57 58 53 47 48 32 36 31 12 1 1 -2 -10 -18 -12 -12 -5 -4 -5 -3 -6 -7 -10 -9 -9 -8 -10 -14 -17 16 31 37 36 53 62 65 62 57 65
1 3 17 36 38 38 44 42 36 31 24 6 -2 -4 -5 -13 -17 -21 -18 -12 -8 -5 -11 -16 -22 -25 -23 -21 -21 -16 -10 -13 -15 -2 21 40 42 55 60 67 57 61 73
13 -5 3 19 29 41 42 40 30 13 1 -3 -6 -9 -12 -17 -18 -11 -16 -13 -16 -8 -9 -13 -23 -32 -38 -36 -27 -22 -12 -9 -9 -6 1 14 31 49 72 75 68 77 85
-5 -5 3 15 27 43 32 16 -2 -10 -10 -11 -11 -14 -10 -9 -8 -12 -8 -13 -15 -15 -15 -33 -45 -44 -36 -34 -33 -26 -17 -4 -6 -4 0 8 22 25 43 81 90 76 76
-15 -4 2 12 16 7 -3 -9 -15 -21 -19 -23 -20 -14 -2 -3 -5 0 -8 -15 -16 -11 -28 -52 -56 -44 -40 -41 -56 -44 -21 -18 12 12 13 26 33 33 33 44 73 82 69
-14 4 7 1 -15 -29 -35 -28 -29 -33 -28 -35 -24 -13 -3 -3 6 6 0 -14 -27 -31 -28 -30 -31 -37 -35 -34 -36 -18 -6 20 9 10 24 43 40 48 47 43 47 68 67
-7 -3 -12 -25 -33 -40 -41 -45 -52 -41 -35 -31 -21 -8 -6 -1 8 7 5 -9 -28 -20 -7 3 14 6 8 14 16 15 25 23 27 26 27 22 29 39 50 56 45 48 74
-10 -38 -46 -35 -25 -28 -29 -32 -20 -14 -20 -15 -11 -1 6 14 7 16 26 28 32 30 44 48 60 56 56 51 43 46 35 30 31 35 45 47 49 46 38 39 41 40 43
-19 -29 -25 -13 -6 -6 2 7 6 10 0 -5 10 18 22 32 32 42 69 74 75 62 76 90 90 68 79 88 88 90 95 85 77 63 60 79 96 97 93 75 61 47 44
-6 -4 5 20 16 28 47 31 26 17 6 8 16 18 29 32 47 72 96 98 96 102 110 117 115 100 118 145 154 149 153 147 143 112 90 131 136 128 123 131 131 115 113
2 29 44 52 70 72 64 48 31 20 -22 23 42 52 58 26 81 113 113 123 120 118 138 120 123 136 154 158 178 188 204 210 189 151 118 104 154 173 181 174 171 172 174
41 79 99 122 121 140 115 76 86 42 8 -46 68 120 122 113 112 104 103 115 140 142 144 116 114 152 166 169 174 168 170 178 171 154 138 127 96 111 148 191 199 201 196
92 126 146 166 232 231 155 67 64 -31 -37 40 -25 24 48 43 60 82 135 145 151 132 108 121 141 140 144 154 159 154 155 164 127 112 134 121 93 74 61 112 137 175 204
153 201 270 303 274 181 60 61 -53 -7 43 35 37 33 76 86 109 127 153 147 138 151 168 156 162 159 169 165 155 155 172 164 145 140 151 137 140 146 152 165 153 121 164
233 288 287 192 188 178 100 58 64 60 55 72 93 115 113 140 150 153 159 153 154 167 167 159 159 148 144 127 126 132 109 116 147 207 205 181 196 209 214 213 194 181 137
152 177 180 163 131 85 51 -10 -1 42 83 121 143 157 148 145 167 155 170 188 189 192 182 176 152 157 159 160 123 156 126 132 195 225 232 231 240 215 193 185 162 149 131
75 77 59 55 41 24 -33 -13 34 73 102 120 128 158 179 196 214 210 200 187 181 171 179 174 160 157 142 136 124 97 113 156 192 209 252 246 230 184 179 160 130 90 71
-27 6 3 4 -22 -43 -7 58 106 130 132 127 152 173 183 187 192 188 176 168 161 139 164 180 185 190 184 162 175 157 189 232 209 152 217 177 171 148 114 112 86 61 38
1 19 26 36 68 83 74 91 133 143 158 175 184 178 212 225 196 165 141 122 122 164 211 195 197 225 197 216 138 152 160 183 213 185 179 149 102 102 96 77 100 106 97
43 124 136 155 141 141 161 162 175 201 207 199 184 196 183 168 142 118 118 138 162 212 226 213 200 186 164 196 179 166 155 142 134 151 136 111 73 51 27 28 2 7 60
178 147 200 211 223 233 235 263 252 239 209 176 170 161 153 142 143 152 142 162 202 246 246 246 189 143 146 155 123 103 120 139 107 74 93 65 36 42 46 25 29 26 41
Wind_Speed
7 25 29 32 32 32 34 35 36 36 37 35 33 32 36 38 40 43 44 46 47 48 49 50 51 53 52 51 52 52 51 51 50 48 47 46 45 43 43 45 46 46 45
17 26 31 32 31 31 34 33 33 34 34 32 30 31 32 35 37 40 43 44 46 48 50 51 52 53 53 53 52 51 52 52 51 50 48 42 44 46 44 44 44 45 44
21 26 31 30 29 32 31 30 31 31 31 30 28 29 32 34 37 39 41 43 45 47 49 50 52 53 53 54 53 53 53 53 53 52 50 44 41 43 44 43 44 43 43
27 31 28 29 30 30 28 28 30 30 29 28 28 30 31 33 35 38 40 42 44 46 48 49 51 53 54 54 55 54 54 54 53 51 47 47 45 41 41 44 46 46 42
29 33 28 30 28 28 27 27 27 28 28 27 28 28 29 32 35 37 39 41 44 46 47 49 51 52 54 55 56 56 55 55 54 52 49 47 45 44 44 45 49 47 40
32 31 27 27 26 27 26 26 26 27 26 26 26 28 31 33 35 37 40 42 45 47 48 51 52 53 54 55 58 59 57 56 54 52 49 49 47 47 46 48 48 44 42
25 26 24 23 25 25 25 24 23 23 23 25 27 29 31 32 34 37 39 41 43 46 48 51 52 53 54 55 58 59 60 58 56 53 51 50 49 48 48 47 44 43 43
28 26 24 25 25 22 20 20 20 24 25 27 27 27 29 31 34 37 39 41 42 45 47 49 50 52 53 55 57 59 60 60 58 56 55 52 52 51 48 45 42 43 45
30 23 23 21 20 17 18 19 23 25 25 25 26 27 29 31 33 36 38 40 41 43 46 48 50 52 54 57 59 61 62 60 58 56 56 53 54 52 49 47 44 43 46
24 20 18 17 16 15 17 21 23 22 22 23 25 27 28 30 32 34 36 38 40 43 46 49 50 51 54 58 62 64 65 61 59 57 55 55 56 54 51 48 46 46 46
15 18 15 14 14 16 18 20 21 21 23 23 23 25 27 29 31 33 34 35 39 41 44 48 49 47 52 55 61 66 65 58 60 57 54 58 58 56 54 51 49 48 47
21 14 17 19 17 17 20 20 21 21 22 22 23 24 27 30 32 34 34 35 37 40 43 50 52 51 53 55 57 64 63 63 60 60 58 64 62 59 58 56 55 54 52
16 16 16 16 17 19 21 22 23 24 25 25 25 27 30 35 36 36 35 35 40 44 46 52 54 53 56 58 61 62 64 64 61 58 58 65 66 64 63 61 59 58 59
18 20 19 20 20 19 22 25 27 28 30 31 32 34 37 38 36 36 37 39 42 44 50 54 55 58 59 60 62 62 62 62 62 61 62 67 67 66 65 65 65 66 65
28 23 18 19 21 23 26 28 29 32 36 42 43 42 38 38 38 38 40 42 46 47 51 55 57 59 61 61 62 62 63 64 67 65 64 67 67 65 64 65 65 67 67
24 19 20 23 25 26 30 31 30 35 42 44 39 42 46 39 36 36 40 45 48 52 52 54 58 60 61 63 65 65 67 67 68 68 66 63 65 64 64 64 64 65 65
16 19 20 23 25 29 31 34 36 42 51 53 48 38 33 33 36 40 46 48 51 51 51 54 59 61 64 66 68 69 69 67 69 64 62 61 61 63 64 65 66 67 67
15 15 18 21 25 29 37 47 42 48 50 37 41 32 31 31 38 45 47 48 47 49 53 59 64 66 67 70 71 70 71 70 66 60 61 61 61 62 63 67 68 69 71
15 14 15 20 27 33 53 48 39 39 37 34 35 35 37 40 44 47 48 47 48 53 58 63 66 68 70 73 75 72 76 75 69 65 67 66 65 66 68 70 73 72 74
16 15 16 20 26 36 34 31 31 34 35 37 36 37 42 46 48 50 51 51 54 58 62 64 67 70 70 76 78 74 76 71 64 66 69 69 71 73 73 75 77 77 79
18 17 19 21 25 28 30 32 35 38 38 37 39 43 47 49 52 53 54 57 59 63 64 64 66 70 72 76 78 81 78 67 63 64 69 71 71 74 75 77 79 83 85
23 21 21 23 25 27 29 35 40 39 39 41 44 48 51 52 54 56 59 62 62 63 62 64 68 71 71 72 81 85 91 80 69 68 69 73 74 76 78 81 85 88 89
27 26 25 26 25 31 35 36 40 41 41 45 48 50 52 52 55 59 60 61 62 63 64 64 66 69 75 72 73 78 91 94 93 71 78 75 80 83 83 84 84 89 91
26 26 27 29 31 36 39 42 45 48 50 50 50 50 56 62 66 66 66 67 66 61 61 62 64 68 72 81 74 69 69 79 91 104 82 85 80 83 82 80 85 85 87
25 26 29 32 33 38 41 44 48 51 53 54 55 61 66 71 73 71 68 69 65 58 57 61 63 66 68 75 78 77 76 74 73 80 100 87 80 76 75 80 77 80 82
27 27 29 32 35 40 43 49 54 58 63 67 71 73 73 77 78 75 69 64 56 55 58 59 61 64 69 69 70 71 72 73 73 73 80 79 81 78 78 79 80 80 82
Wind_Direction
94 109 106 105 98 89 85 80 72 66 62 55 43 31 31 29 32 40 41 40 37 38 32 31 26 23 18 15 12 10 4 354 351 338 325 328 341 349 351 351 347 348 349
104 109 109 107 98 89 87 81 71 64 58 47 36 26 19 18 20 24 29 31 38 37 37 33 32 28 23 17 10 5 1 355 348 342 344 352 339 334 354 359 350 346 349
107 105 110 106 98 93 88 77 69 63 56 47 27 14 15 24 29 31 28 32 33 30 29 30 28 25 21 14 9 5 358 357 355 350 350 355 354 347 347 355 353 356 354
111 112 109 108 99 93 86 77 71 65 60 43 25 22 28 29 25 25 29 29 29 28 27 25 24 21 17 14 7 3 359 353 349 351 355 351 349 355 355 350 346 348 360
113 115 109 109 100 92 84 77 68 64 59 43 34 32 31 30 29 32 34 33 29 25 22 21 20 20 18 14 9 3 360 353 349 348 348 350 351 347 348 351 347 347 354
113 113 107 106 98 94 85 74 69 65 53 37 31 39 39 33 32 33 31 29 27 26 25 25 24 24 23 18 13 6 360 355 352 350 349 347 347 343 343 344 348 355 355
100 98 100 96 94 87 77 70 61 49 39 38 40 43 34 31 33 33 32 30 34 33 31 28 27 26 20 16 12 9 4 360 355 353 350 347 344 340 342 344 348 350 352
99 96 93 95 90 75 62 52 43 57 57 53 46 34 29 28 27 27 27 31 31 31 28 28 25 21 17 12 10 7 3 1 359 354 348 346 340 336 337 343 346 345 342
95 88 84 81 72 48 42 48 63 63 55 49 42 34 33 31 28 29 30 31 28 25 19 15 11 8 7 1 360 358 355 356 357 354 351 348 340 338 338 335 337 340 338
84 75 67 52 46 30 34 51 57 47 43 45 40 36 31 31 30 29 27 24 22 14 11 2 4 7 2 354 351 351 350 350 348 347 347 347 342 338 336 338 335 335 336
61 63 37 25 24 30 34 30 31 39 46 43 35 28 24 22 22 21 21 19 15 11 8 1 5 4 358 355 350 346 347 353 347 345 346 339 337 337 335 334 334 335 334
79 36 37 55 40 1 352 13 27 27 25 19 14 12 7 7 7 8 9 7 6 7 5 357 358 358 353 352 351 347 346 343 345 340 337 324 327 328 325 327 325 324 329
54 46 34 17 3 1 348 344 349 358 3 359 356 355 352 348 349 356 1 3 0 359 360 354 354 353 349 346 344 344 342 342 341 342 340 327 322 321 320 320 321 320 317
63 65 44 29 18 2 354 4 11 8 354 354 340 333 331 337 347 352 356 354 354 355 352 350 350 345 343 342 341 342 343 344 342 339 336 331 327 323 320 318 317 315 312
89 72 36 11 15 22 13 13 6 357 345 325 323 324 331 334 340 346 348 349 346 349 350 346 347 344 342 341 341 341 340 338 336 335 334 333 331 330 327 324 320 318 316
81 57 43 27 22 22 17 13 7 353 342 329 330 327 327 344 348 352 347 349 346 346 347 344 342 340 339 337 336 335 334 333 332 331 331 333 334 332 330 328 327 323 320
59 63 43 37 33 24 17 7 353 347 334 334 331 340 340 353 351 346 339 344 342 344 345 343 339 337 334 334 332 332 332 333 332 333 333 333 332 332 330 327 325 323 321
67 60 54 41 21 2 351 338 339 334 348 351 345 356 350 358 350 336 345 344 346 345 342 337 333 332 332 332 331 331 330 330 331 331 332 330 329 327 325 324 322 320 318
83 74 38 10 357 346 332 337 358 7 15 20 14 6 358 350 344 344 344 345 344 341 338 335 333 333 331 330 329 328 327 326 325 324 323 323 323 322 320 318 317 316 315
60 53 37 13 355 348 4 18 21 19 16 14 12 5 353 347 345 344 344 342 341 337 336 336 334 334 332 330 327 326 326 324 322 321 321 320 319 317 316 314 313 311 310
53 52 33 21 13 27 12 11 6 359 1 7 6 358 351 348 346 344 341 339 338 336 336 336 335 333 331 331 327 324 323 321 320 319 319 318 318 317 315 313 311 309 306
80 70 59 47 40 32 23 7 2 0 2 1 357 352 349 347 345 341 338 336 335 335 335 335 333 330 330 333 328 324 320 319 318 318 318 318 316 316 313 312 309 307 304
75 65 53 47 39 15 13 15 9 6 2 353 351 349 349 350 346 340 338 337 334 333 331 333 334 333 330 333 335 328 321 316 317 318 317 316 315 313 312 310 308 306 303
57 47 41 31 21 13 9 4 1 357 352 352 350 348 344 341 338 336 334 334 334 334 334 335 336 335 334 330 332 332 329 322 317 312 315 314 315 314 313 312 311 310 307
53 33 31 22 11 13 13 10 4 359 354 350 345 339 335 334 334 334 334 334 334 335 336 337 337 337 337 332 329 327 325 323 320 317 313 315 315 316 314 313 312 312 311
50 47 36 30 19 14 9 4 358 351 345 341 338 336 335 333 332 333 333 334 335 336 336 337 337 336 334 333 330 328 327 325 322 321 319 319 317 318 316 315 313 313 313